Regional Weather Roundup
Issued by NWS

Home | Current Version | Previous Version | Text Only | Print | Product List | Glossary On
Versions: 1 2 3 4 5 6 7 8 9 10 11 12 13 14 15 16 17 18 19 20 21 22 23 24 25 26 27 28 29 30 31 32 33 34 35 36 37 38 39 40 41 42 43 44 45 46 47 48 49 50
000
ASUS44 KBMX 191010
RWRAL

ALABAMA REGIONAL WEATHER ROUNDUP
NATIONAL WEATHER SERVICE BIRMINGHAM AL
500 AM CDT THU APR 19 2018

NOTE: "FAIR" INDICATES FEW OR NO CLOUDS BELOW 12,000 FEET
WITH NO SIGNIFICANT WEATHER AND/OR OBSTRUCTIONS TO VISIBILITY.

THE REMARK "TC" DENOTES TEMPERATURE IN DEGREES CELSIUS.

ALZ001>011-014-016>018-020-191100-
NORTH ALABAMA

CITY           SKY/WX    TMP DP  RH WIND       PRES   REMARKS
MUSCLE SHOALS  FAIR      52  36  54 NW7       30.09R
HUNTSVILLE     FAIR      54  42  64 NW10      30.03R
DECATUR        FAIR      53  40  61 NW12      30.05R
HALEYVILLE     FAIR      51  39  63 N15       30.07R
GADSDEN        FAIR      60  44  55 NW13      29.99R
$$

ALZ012-013-022-023-030>036-040>044-191100-
WEST CENTRAL ALABAMA

CITY           SKY/WX    TMP DP  RH WIND       PRES   REMARKS
TUSCALOOSA     FAIR      62  46  55 N10       30.03R
DEMOPOLIS      FAIR      63  55  77 NW6       30.03R
$$

ALZ015-024>026-033>036-041>044-191100-
CENTRAL ALABAMA

CITY           SKY/WX    TMP DP  RH WIND       PRES   REMARKS
BIRMINGHAM     FAIR      61  47  59 NW9       30.03R
MONTGOMERY     FAIR      64  62  93 SW9       29.99R
SHELBY CO ARPT FAIR      63  60  90 NW8       29.99R
MAXWELL AFB    MOCLDY    62  60  94 CALM      29.98R
GREENVILLE     FAIR      63  60  90 W7        30.00R
SELMA          FAIR      64  61  88 SW7G13    30.00R
PRATTVILLE     FAIR      60  60 100 CALM      29.98S
BESSEMER       FAIR      61  52  72 NW10G18   30.01R
TALLADEGA      FAIR      63  57  80 CALM      29.98R
PELL CITY      SUNNY     63  52  67 NW7       29.99R
MARION         FAIR      63  60  88 NW12      30.01R
SYLACAUGA      MOCLDY    58  58 100 CALM      29.99R
$$

ALZ019-021-028-029-037-038-045>048-191100-
EAST CENTRAL ALABAMA

CITY           SKY/WX    TMP DP  RH WIND       PRES   REMARKS
ANNISTON       MOCLDY    61  58  90 SW5       29.97R
ALEXANDER CITY FAIR      62  62 100 SW5       29.98R
AUBURN         CLOUDY    61  60  97 SW10      29.99R
$$

ALZ051>064-191100-
SOUTHWEST ALABAMA

CITY           SKY/WX    TMP DP  RH WIND       PRES   REMARKS
MOBILE         MOCLDY    65  62  90 W5        30.05S
BROOKLEY FIELD FAIR      67  65  93 VRB5      30.05S
EVERGREEN      FAIR      64  61  90 SW7       30.02S
$$

ALZ049-050-065>069-191100-
SOUTHEAST ALABAMA

CITY           SKY/WX    TMP DP  RH WIND       PRES   REMARKS
DOTHAN         FAIR      64  61  90 SW9       30.04S
OZARK          FAIR      63  62  97 SW7       30.01S
TROY           MOCLDY    62  62 100 SW6       30.00S
EUFAULA        FAIR      64  62  93 SW3       29.98S
$$



USA.gov is the U.S. government's official web portal to all federal, state and local government web resources and services.